EVA711 ZSPD-RCTP

Flight info

Callsign EVA711
Flight time N/A
Altitude 32000
Route MIGOL B591 KASKA/N0470F320 L2 BERBA B591 BAKER
Aircraft B77W/H-SDE1E2E3FGHIJ1J3J4J5LM1P2RWXYZ/LB1D1

Departure

Time 2026-05-06 13:02
Airport Shanghai Pudong International Airport (ZSPD)

Arrival

Time N/A
Airport Taiwan Taoyuan International Airport (RCTP)
Time Latitude Longitude Altitude Speed Heading
2026-05-06 12:40 31.15160 121.80815 28 ft 0 kts 252°
2026-05-06 12:49 31.15164 121.80830 28 ft 2 kts 262°
2026-05-06 12:50 31.15167 121.80849 28 ft 2 kts 269°
2026-05-06 12:50 31.15166 121.80869 26 ft 2 kts 279°
2026-05-06 12:50 31.15162 121.80887 26 ft 2 kts 296°
2026-05-06 12:50 31.15153 121.80903 26 ft 2 kts 315°
2026-05-06 12:51 31.15140 121.80916 26 ft 2 kts 331°
2026-05-06 12:51 31.15127 121.80923 27 ft 1 kts 341°
2026-05-06 12:51 31.15125 121.80924 27 ft 0 kts 342°
2026-05-06 12:55 31.15139 121.80919 28 ft 7 kts 343°
2026-05-06 12:55 31.15196 121.80898 28 ft 9 kts 342°
2026-05-06 12:56 31.15254 121.80876 27 ft 9 kts 342°
2026-05-06 12:56 31.15315 121.80853 27 ft 9 kts 342°
2026-05-06 12:56 31.15376 121.80830 27 ft 9 kts 342°
2026-05-06 12:56 31.15437 121.80807 28 ft 9 kts 342°
2026-05-06 12:57 31.15498 121.80783 27 ft 9 kts 342°
2026-05-06 12:57 31.15560 121.80760 27 ft 9 kts 342°
2026-05-06 12:57 31.15621 121.80741 28 ft 9 kts 355°
2026-05-06 12:57 31.15673 121.80780 27 ft 9 kts 58°
2026-05-06 12:58 31.15697 121.80851 27 ft 9 kts 71°
2026-05-06 12:58 31.15717 121.80924 27 ft 9 kts 72°
2026-05-06 12:58 31.15751 121.80986 27 ft 9 kts 27°
2026-05-06 12:58 31.15816 121.81002 27 ft 10 kts 29°
2026-05-06 12:59 31.15842 121.81039 27 ft 3 kts 66°
2026-05-06 12:59 31.15843 121.81042 27 ft 0 kts 68°
2026-05-06 13:00 31.15861 121.81098 27 ft 10 kts 70°
2026-05-06 13:00 31.15864 121.81165 26 ft 9 kts 111°
2026-05-06 13:00 31.15820 121.81209 27 ft 9 kts 155°
2026-05-06 13:01 31.15738 121.81240 26 ft 25 kts 162°
2026-05-06 13:01 31.15378 121.81377 26 ft 93 kts 162°
2026-05-06 13:01 31.14510 121.81705 27 ft 163 kts 162°
2026-05-06 13:01 31.13316 121.82123 352 ft 185 kts 168°
2026-05-06 13:02 31.12127 121.82410 1410 ft 169 kts 163°
2026-05-06 13:02 31.10999 121.82983 1977 ft 186 kts 153°
2026-05-06 13:02 31.09801 121.83826 2227 ft 216 kts 150°
2026-05-06 13:02 31.08453 121.84795 2687 ft 235 kts 149°
2026-05-06 13:03 31.07058 121.85854 3432 ft 244 kts 147°
2026-05-06 13:03 31.05661 121.87000 4107 ft 254 kts 147°
2026-05-06 13:03 31.04169 121.88236 4774 ft 268 kts 147°
2026-05-06 13:03 31.02625 121.89517 4943 ft 275 kts 147°
2026-05-06 13:04 31.01064 121.90823 4941 ft 276 kts 144°
2026-05-06 13:04 30.99631 121.92267 4934 ft 275 kts 139°
2026-05-06 13:04 30.98222 121.93811 4945 ft 274 kts 139°
2026-05-06 13:04 30.96826 121.95326 4941 ft 275 kts 140°
2026-05-06 13:05 30.95419 121.96831 4950 ft 275 kts 140°
2026-05-06 13:05 30.94119 121.98403 4930 ft 273 kts 124°
2026-05-06 13:05 30.93507 122.00485 4986 ft 276 kts 93°
2026-05-06 13:05 30.93772 122.02733 5547 ft 280 kts 73°
2026-05-06 13:06 30.94375 122.04915 6307 ft 285 kts 72°
2026-05-06 13:06 30.94997 122.07108 7026 ft 293 kts 72°
2026-05-06 13:06 30.95637 122.09357 7879 ft 293 kts 72°
2026-05-06 13:06 30.96282 122.11639 8669 ft 298 kts 72°
2026-05-06 13:07 30.96867 122.13717 9399 ft 302 kts 71°
2026-05-06 13:07 30.97517 122.16042 10226 ft 304 kts 71°
2026-05-06 13:07 30.98182 122.18430 10720 ft 320 kts 71°
2026-05-06 13:07 30.98896 122.21003 10924 ft 348 kts 71°
2026-05-06 13:08 30.99667 122.23791 11096 ft 374 kts 72°
2026-05-06 13:08 31.00172 122.26782 11627 ft 382 kts 88°
2026-05-06 13:08 31.00133 122.29902 12442 ft 389 kts 92°
2026-05-06 13:08 31.00048 122.33073 13346 ft 394 kts 91°
2026-05-06 13:09 31.00004 122.36293 14170 ft 401 kts 91°
2026-05-06 13:09 30.99993 122.39564 14897 ft 408 kts 90°
2026-05-06 13:09 30.99994 122.42904 15601 ft 415 kts 90°
2026-05-06 13:09 31.00001 122.46299 16334 ft 422 kts 90°
2026-05-06 13:10 31.00008 122.49743 17090 ft 428 kts 90°
2026-05-06 13:10 31.00016 122.53232 17836 ft 433 kts 90°
2026-05-06 13:10 31.00022 122.56811 18551 ft 439 kts 90°
2026-05-06 13:10 31.00026 122.60346 19186 ft 444 kts 90°
2026-05-06 13:11 31.00029 122.63960 19716 ft 448 kts 90°
2026-05-06 13:11 31.00031 122.67616 19801 ft 455 kts 90°
2026-05-06 13:11 31.00031 122.71323 20434 ft 458 kts 90°
2026-05-06 13:11 31.00031 122.75044 21210 ft 460 kts 90°
2026-05-06 13:12 31.00029 122.78774 21932 ft 463 kts 90°
2026-05-06 13:12 31.00026 122.82550 22553 ft 469 kts 90°
2026-05-06 13:12 31.00023 122.86376 23152 ft 474 kts 90°
2026-05-06 13:12 31.00018 122.90240 23729 ft 480 kts 90°
2026-05-06 13:13 31.00012 122.94149 24231 ft 484 kts 90°
2026-05-06 13:13 30.99996 122.98089 24747 ft 488 kts 91°
2026-05-06 13:13 30.99546 123.02010 25207 ft 493 kts 107°
2026-05-06 13:13 30.98345 123.05743 25646 ft 495 kts 113°
2026-05-06 13:14 30.96976 123.09516 26111 ft 500 kts 114°
2026-05-06 13:14 30.95626 123.13208 26588 ft 504 kts 114°
2026-05-06 13:14 30.94267 123.16997 27095 ft 508 kts 113°
2026-05-06 13:14 30.92931 123.20815 27588 ft 512 kts 112°
2026-05-06 13:15 30.91600 123.24689 28071 ft 517 kts 112°
2026-05-06 13:15 30.90272 123.28594 28560 ft 520 kts 112°
2026-05-06 13:15 30.88944 123.32510 29227 ft 519 kts 112°
2026-05-06 13:15 30.87620 123.36408 29967 ft 517 kts 112°
2026-05-06 13:16 30.86298 123.40286 30638 ft 514 kts 112°
2026-05-06 13:16 30.84983 123.44134 31427 ft 508 kts 112°
2026-05-06 13:16 30.83682 123.47932 32000 ft 505 kts 112°
2026-05-06 13:17 30.81045 123.55614 32058 ft 520 kts 112°
2026-05-06 13:17 30.77875 123.63226 32048 ft 528 kts 130°
2026-05-06 13:17 30.75239 123.66194 32054 ft 529 kts 147°
2026-05-06 13:18 30.72022 123.68248 32069 ft 528 kts 161°
2026-05-06 13:18 30.68522 123.69451 32046 ft 522 kts 174°
2026-05-06 13:18 30.64949 123.69668 32060 ft 512 kts 184°
2026-05-06 13:19 30.57800 123.69509 32052 ft 514 kts 185°
2026-05-06 13:19 30.50627 123.69399 32050 ft 516 kts 184°
2026-05-06 13:20 30.43443 123.69372 32048 ft 517 kts 183°
2026-05-06 13:20 30.36226 123.69379 32054 ft 518 kts 183°
2026-05-06 13:21 30.29020 123.69387 32049 ft 518 kts 183°
2026-05-06 13:21 30.21806 123.69391 32055 ft 518 kts 183°
2026-05-06 13:22 30.14583 123.69391 32049 ft 518 kts 183°
2026-05-06 13:22 30.07375 123.69391 32051 ft 518 kts 183°
2026-05-06 13:23 30.00155 123.69391 32048 ft 518 kts 183°
2026-05-06 13:23 29.92943 123.69392 32038 ft 519 kts 183°
2026-05-06 13:24 29.85717 123.69393 32050 ft 519 kts 183°
2026-05-06 13:24 29.78496 123.69393 32049 ft 519 kts 184°
2026-05-06 13:25 29.71265 123.69393 32050 ft 520 kts 184°
2026-05-06 13:25 29.64032 123.69394 32053 ft 520 kts 184°
2026-05-06 13:26 29.56793 123.69395 32050 ft 520 kts 184°
2026-05-06 13:26 29.49494 123.69395 32049 ft 521 kts 184°
2026-05-06 13:27 29.42293 123.69396 32050 ft 521 kts 184°
2026-05-06 13:27 29.34997 123.69397 32049 ft 521 kts 184°
2026-05-06 13:28 29.27744 123.69397 32049 ft 521 kts 184°
2026-05-06 13:28 29.20493 123.69397 32048 ft 522 kts 184°
2026-05-06 13:29 29.13232 123.69398 32046 ft 522 kts 184°
2026-05-06 13:29 29.05963 123.69399 32049 ft 522 kts 184°
2026-05-06 13:30 28.98698 123.69398 32047 ft 522 kts 184°
2026-05-06 13:30 28.91431 123.69399 32048 ft 522 kts 184°
2026-05-06 13:31 28.84168 123.69400 32043 ft 522 kts 184°
2026-05-06 13:31 28.76898 123.69400 32046 ft 523 kts 184°
2026-05-06 13:32 28.69706 123.68654 32049 ft 516 kts 195°
2026-05-06 13:32 28.62852 123.66474 32046 ft 509 kts 205°
2026-05-06 13:33 28.56246 123.63545 32051 ft 509 kts 205°
2026-05-06 13:33 28.49644 123.60616 32043 ft 509 kts 205°
2026-05-06 13:34 28.43038 123.57736 32046 ft 509 kts 205°
2026-05-06 13:34 28.37483 123.55335 32045 ft 509 kts 205°
2026-05-06 13:35 28.30870 123.52482 32044 ft 508 kts 205°
2026-05-06 13:35 28.24308 123.49651 32045 ft 508 kts 205°
2026-05-06 13:36 28.17667 123.46788 32047 ft 507 kts 205°
2026-05-06 13:36 28.11114 123.43967 32043 ft 507 kts 205°
2026-05-06 13:37 28.04521 123.41132 32044 ft 507 kts 205°
2026-05-06 13:37 27.97927 123.38300 32043 ft 506 kts 205°
2026-05-06 13:38 27.91345 123.35478 32042 ft 506 kts 205°
2026-05-06 13:38 27.84755 123.32658 32044 ft 506 kts 205°
2026-05-06 13:39 27.78168 123.29843 32042 ft 506 kts 205°
2026-05-06 13:39 27.71582 123.27031 32043 ft 506 kts 205°
2026-05-06 13:40 27.65004 123.24225 32042 ft 505 kts 205°
2026-05-06 13:40 27.58431 123.21424 32045 ft 505 kts 205°
2026-05-06 13:41 27.51850 123.18624 32042 ft 505 kts 205°
2026-05-06 13:41 27.45277 123.15831 32041 ft 505 kts 205°
2026-05-06 13:42 27.38696 123.13043 32038 ft 505 kts 205°
2026-05-06 13:42 27.32127 123.10265 32039 ft 505 kts 205°
2026-05-06 13:43 27.25547 123.07485 32040 ft 505 kts 205°
2026-05-06 13:43 27.18932 123.04692 32039 ft 504 kts 205°
2026-05-06 13:44 27.12401 123.01938 32037 ft 504 kts 205°
2026-05-06 13:44 27.06097 122.98615 32037 ft 498 kts 214°
2026-05-06 13:45 27.00417 122.94246 32042 ft 494 kts 220°
2026-05-06 13:45 26.92044 122.87499 32035 ft 494 kts 219°
2026-05-06 13:46 26.86434 122.83047 32031 ft 494 kts 219°
2026-05-06 13:46 26.80815 122.78606 32032 ft 494 kts 219°
2026-05-06 13:47 26.75203 122.74172 32031 ft 494 kts 219°
2026-05-06 13:47 26.69588 122.69739 32033 ft 494 kts 219°
2026-05-06 13:48 26.63976 122.65312 32028 ft 492 kts 219°
2026-05-06 13:48 26.58470 122.60974 31823 ft 477 kts 219°
2026-05-06 13:49 26.55780 122.58855 31607 ft 472 kts 219°
2026-05-06 13:49 26.53105 122.56746 31314 ft 469 kts 219°
2026-05-06 13:49 26.50442 122.54647 30979 ft 468 kts 219°
2026-05-06 13:49 26.47784 122.52553 30672 ft 466 kts 219°
2026-05-06 13:50 26.45143 122.50474 30404 ft 463 kts 219°
2026-05-06 13:50 26.42514 122.48407 30134 ft 461 kts 219°
2026-05-06 13:50 26.39901 122.46353 29823 ft 458 kts 219°
2026-05-06 13:50 26.37304 122.44313 29506 ft 456 kts 219°
2026-05-06 13:51 26.34709 122.42276 29157 ft 454 kts 219°
2026-05-06 13:51 26.32164 122.40280 28836 ft 453 kts 219°
2026-05-06 13:51 26.29593 122.38263 28510 ft 451 kts 219°
2026-05-06 13:51 26.27031 122.36255 28191 ft 449 kts 218°
2026-05-06 13:52 26.24480 122.34257 27886 ft 448 kts 218°
2026-05-06 13:52 26.21935 122.32264 27589 ft 446 kts 218°
2026-05-06 13:52 26.19404 122.30284 27272 ft 444 kts 218°
2026-05-06 13:52 26.16879 122.28308 26963 ft 443 kts 218°
2026-05-06 13:53 26.14362 122.26341 26657 ft 441 kts 218°
2026-05-06 13:53 26.11848 122.24387 26363 ft 440 kts 218°
2026-05-06 13:53 26.09339 122.22455 26082 ft 439 kts 217°
2026-05-06 13:53 26.06827 122.20527 25799 ft 437 kts 217°
2026-05-06 13:54 26.04329 122.18612 25504 ft 436 kts 217°
2026-05-06 13:54 26.01828 122.16693 25224 ft 435 kts 217°
2026-05-06 13:54 25.99346 122.14788 24957 ft 434 kts 217°
2026-05-06 13:54 25.96866 122.12885 24699 ft 432 kts 217°
2026-05-06 13:55 25.94394 122.10988 24441 ft 431 kts 217°
2026-05-06 13:55 25.91933 122.09100 24187 ft 430 kts 217°
2026-05-06 13:55 25.89475 122.07216 23880 ft 429 kts 216°
2026-05-06 13:55 25.87025 122.05337 23324 ft 428 kts 216°
2026-05-06 13:56 25.84580 122.03465 22730 ft 425 kts 216°
2026-05-06 13:56 25.82156 122.01610 22177 ft 422 kts 216°
2026-05-06 13:56 25.79748 121.99767 21626 ft 419 kts 216°
2026-05-06 13:56 25.77366 121.97945 21090 ft 416 kts 216°
2026-05-06 13:57 25.74985 121.96124 20555 ft 413 kts 216°
2026-05-06 13:57 25.72630 121.94326 20032 ft 410 kts 216°
2026-05-06 13:57 25.70290 121.92545 19611 ft 405 kts 216°
2026-05-06 13:57 25.67982 121.90795 19221 ft 400 kts 216°
2026-05-06 13:58 25.65802 121.88921 18820 ft 393 kts 225°
2026-05-06 13:58 25.63945 121.86730 18428 ft 388 kts 232°
2026-05-06 13:58 25.62358 121.84329 18011 ft 385 kts 239°
2026-05-06 13:58 25.61029 121.81770 17613 ft 381 kts 242°
2026-05-06 13:59 25.59744 121.79210 17226 ft 380 kts 242°
2026-05-06 13:59 25.58459 121.76650 16846 ft 381 kts 242°
2026-05-06 13:59 25.57160 121.74077 16481 ft 383 kts 242°
2026-05-06 13:59 25.55854 121.71507 16093 ft 383 kts 241°
2026-05-06 14:00 25.54542 121.68941 15712 ft 382 kts 241°
2026-05-06 14:00 25.53235 121.66390 15332 ft 381 kts 241°
2026-05-06 14:00 25.51923 121.63832 14964 ft 382 kts 241°
2026-05-06 14:00 25.50614 121.61283 14579 ft 380 kts 241°
2026-05-06 14:01 25.49303 121.58756 14203 ft 378 kts 239°
2026-05-06 14:01 25.47815 121.56358 13824 ft 377 kts 232°
2026-05-06 14:01 25.46117 121.54164 13425 ft 374 kts 229°
2026-05-06 14:01 25.44404 121.52015 13049 ft 371 kts 229°
2026-05-06 14:02 25.42713 121.49873 12681 ft 367 kts 230°
2026-05-06 14:02 25.41048 121.47747 12318 ft 364 kts 230°
2026-05-06 14:02 25.39403 121.45641 11959 ft 359 kts 230°
2026-05-06 14:02 25.37784 121.43571 11594 ft 353 kts 230°
2026-05-06 14:03 25.36189 121.41533 11264 ft 347 kts 230°
2026-05-06 14:03 25.34621 121.39533 10920 ft 342 kts 230°
2026-05-06 14:03 25.33076 121.37561 10580 ft 337 kts 230°
2026-05-06 14:03 25.31552 121.35617 10254 ft 332 kts 230°
2026-05-06 14:04 25.30052 121.33704 9935 ft 321 kts 230°
2026-05-06 14:04 25.28647 121.31914 9761 ft 299 kts 230°
2026-05-06 14:04 25.27322 121.30226 9485 ft 283 kts 230°
2026-05-06 14:04 25.26058 121.28616 9125 ft 276 kts 230°
2026-05-06 14:05 25.24803 121.27015 8773 ft 275 kts 230°
2026-05-06 14:05 25.23558 121.25428 8499 ft 272 kts 230°
2026-05-06 14:05 25.22323 121.23855 8202 ft 269 kts 230°
2026-05-06 14:05 25.21106 121.22306 7934 ft 266 kts 230°
2026-05-06 14:06 25.19897 121.20768 7684 ft 263 kts 230°
2026-05-06 14:06 25.18703 121.19249 7425 ft 261 kts 230°
2026-05-06 14:06 25.17518 121.17742 7164 ft 258 kts 230°
2026-05-06 14:06 25.16349 121.16255 6909 ft 256 kts 230°
2026-05-06 14:07 25.15183 121.14773 6654 ft 254 kts 230°
2026-05-06 14:07 25.14027 121.13305 6408 ft 253 kts 229°
2026-05-06 14:07 25.12876 121.11844 6143 ft 251 kts 229°
2026-05-06 14:07 25.11735 121.10396 5881 ft 250 kts 229°
2026-05-06 14:08 25.10597 121.08951 5622 ft 249 kts 230°
2026-05-06 14:08 25.09456 121.07500 5360 ft 251 kts 229°
2026-05-06 14:08 25.08312 121.06047 5104 ft 252 kts 229°
2026-05-06 14:08 25.07165 121.04591 4882 ft 249 kts 230°
2026-05-06 14:09 25.06039 121.03161 4638 ft 246 kts 229°
2026-05-06 14:09 25.04910 121.01763 4390 ft 240 kts 223°
2026-05-06 14:09 25.03483 121.00922 4188 ft 232 kts 192°
2026-05-06 14:09 25.01897 121.00972 3975 ft 226 kts 167°
2026-05-06 14:10 25.00462 121.01646 3651 ft 224 kts 144°
2026-05-06 14:10 24.99324 121.02751 3475 ft 216 kts 137°
2026-05-06 14:10 24.98238 121.03919 3212 ft 218 kts 136°
2026-05-06 14:10 24.97160 121.05080 2978 ft 215 kts 136°
2026-05-06 14:11 24.96123 121.06230 2736 ft 207 kts 128°
2026-05-06 14:11 24.95650 121.07651 2582 ft 194 kts 88°
2026-05-06 14:11 24.96094 121.09053 2553 ft 199 kts 58°
2026-05-06 14:11 24.96863 121.10322 2525 ft 199 kts 57°
2026-05-06 14:12 24.97656 121.11562 2510 ft 196 kts 53°
2026-05-06 14:12 24.98516 121.12718 2331 ft 197 kts 50°
2026-05-06 14:12 24.99392 121.13832 2105 ft 184 kts 50°
2026-05-06 14:12 25.00198 121.14854 1845 ft 170 kts 51°
2026-05-06 14:13 25.00941 121.15802 1644 ft 155 kts 51°
2026-05-06 14:13 25.01613 121.16658 1453 ft 143 kts 51°
2026-05-06 14:13 25.02274 121.17499 1274 ft 146 kts 51°
2026-05-06 14:13 25.02942 121.18352 1080 ft 149 kts 50°
2026-05-06 14:14 25.03611 121.19205 900 ft 147 kts 50°
2026-05-06 14:14 25.04238 121.20003 734 ft 147 kts 49°
2026-05-06 14:14 25.04905 121.20851 518 ft 144 kts 49°
2026-05-06 14:14 25.05545 121.21666 316 ft 143 kts 49°
2026-05-06 14:15 25.06190 121.22504 145 ft 141 kts 48°
2026-05-06 14:15 25.06790 121.23262 101 ft 113 kts 49°